This is the latest recevied weather packets stored in our database for station/object W4SKW. If no packets are shown the sender has not sent any weather packets the latest 10 day(s).
| Time | Temp. | Humidity | Pressure | Rain* | Wind** | Luminosity | Snow |
|---|---|---|---|---|---|---|---|
| 1777849760 | 18.89° C | 54% | 1018.1 hPa | 0 mm | - | 48 W/m² | - |
| 1777849456 | 19.44° C | 53% | 1018.2 hPa | 0 mm | - | 43 W/m² | - |
| 1777849154 | 20.56° C | 47% | 1018.1 hPa | 0 mm | - | 49 W/m² | - |
| 1777848850 | 21.67° C | 39% | 1018.3 hPa | 0 mm | - | 133 W/m² | - |
| 1777848546 | 21.11° C | 39% | 1018.3 hPa | 0 mm | - | 147 W/m² | - |
| 1777848243 | 21.67° C | 38% | 1018.5 hPa | 0 mm | - | 158 W/m² | - |
| 1777847941 | 21.67° C | 39% | 1018.3 hPa | 0 mm | - | 186 W/m² | - |
| 1777847639 | 22.22° C | 38% | 1018.4 hPa | 0 mm | - | 194 W/m² | - |
| 1777847334 | 21.67° C | 41% | 1018.4 hPa | 0 mm | - | 205 W/m² | - |
| 1777847033 | 21.67° C | 38% | 1018.6 hPa | 0 mm | - | 220 W/m² | - |
| 1777846731 | 21.67° C | 40% | 1018.6 hPa | 0 mm | - | 236 W/m² | - |
| 1777846429 | 22.22° C | 40% | 1018.5 hPa | 0 mm | - | 267 W/m² | - |
| 1777846125 | 21.67° C | 39% | 1018.6 hPa | 0 mm | - | 299 W/m² | - |
| 1777845822 | 21.67° C | 39% | 1018.6 hPa | 0 mm | - | 299 W/m² | - |
| 1777845519 | 21.67° C | 42% | 1018.7 hPa | 0 mm | - | 307 W/m² | - |
| 1777845216 | 21.67° C | 39% | 1018.6 hPa | 0 mm | - | 326 W/m² | - |
| 1777844913 | 22.22° C | 40% | 1018.7 hPa | 0 mm | - | 334 W/m² | - |
| 1777844611 | 21.67° C | 40% | 1018.8 hPa | 0 mm | - | 359 W/m² | - |
| 1777844308 | 22.22° C | 43% | 1018.8 hPa | 0 mm | - | 369 W/m² | - |
| 1777844005 | 21.67° C | 39% | 1018.9 hPa | 0 mm | - | 378 W/m² | - |
| 1777843702 | 21.11° C | 39% | 1018.9 hPa | 0 mm | - | 397 W/m² | - |
| 1777843400 | 22.22° C | 39% | 1019.1 hPa | 0 mm | - | 413 W/m² | - |
| 1777843097 | 21.67° C | 43% | 1019.1 hPa | 0 mm | - | 438 W/m² | - |
| 1777842794 | 21.67° C | 44% | 1019.1 hPa | 0 mm | - | 454 W/m² | - |
| 1777842494 | 21.67° C | 41% | 1019.1 hPa | 0 mm | - | 463 W/m² | - |
* Rain latest hour (hover to see other rain measurements)
** Current wind speed in m/s (hover to see current wind gust speed)